Theta_e
329 329 328 328 329 329 330 330 330 329 329 329 329 329 329 329 328 328 328 328 328 328 328 327 327 327 327 327 327 327 327 326 326 325 325 325 325 324 324 324 323 322
329 329 329 328 328 328 329 329 330 329 329 329 329 329 329 329 329 329 328 328 328 328 328 327 327 327 326 327 327 327 327 326 326 326 326 325 325 325 324 324 324 323
329 329 329 328 328 328 327 328 329 329 329 329 329 329 329 329 329 329 328 328 328 328 328 327 327 327 327 327 327 327 327 327 326 326 326 326 326 325 325 324 324 324
327 328 329 328 328 328 327 327 328 328 328 329 329 329 329 329 329 329 329 329 328 328 328 327 327 327 327 327 327 327 327 327 327 326 326 326 326 326 325 325 324 323
325 327 328 328 328 328 327 327 327 327 328 328 328 328 329 329 329 329 329 329 329 328 328 327 327 327 327 327 326 326 326 326 326 326 326 326 326 326 326 325 324 324
322 325 327 327 328 328 328 327 327 327 327 327 327 327 328 328 329 329 329 329 329 329 328 328 327 327 327 327 326 326 326 326 326 326 326 325 325 325 325 325 325 324
319 322 325 326 327 327 327 327 327 327 327 327 327 327 327 328 328 329 329 329 329 329 328 328 327 327 327 326 326 326 326 325 325 325 325 325 325 325 325 325 324 324
316 319 322 324 326 327 327 327 327 327 327 327 327 327 327 327 328 328 328 328 328 329 329 328 328 327 327 326 326 326 325 325 325 325 325 325 324 324 324 324 324 323
315 317 320 323 325 326 327 327 327 327 327 327 327 327 327 327 328 328 328 328 328 328 328 328 328 327 327 326 326 325 325 325 325 325 325 324 324 324 323 323 323 323
315 316 318 321 323 325 326 327 327 327 327 327 327 327 327 327 327 328 328 328 328 328 328 328 327 327 327 326 326 326 325 325 325 325 325 324 324 323 323 323 322 322
313 315 317 318 320 322 323 325 326 326 327 327 327 327 327 327 327 327 327 327 328 328 328 328 327 327 327 326 326 326 325 325 325 325 324 324 324 323 323 323 322 322
311 312 314 315 317 318 320 322 324 325 326 326 326 327 327 326 326 326 327 327 327 327 327 327 327 327 326 326 326 325 325 325 325 325 325 324 324 323 323 322 322 322
310 310 311 313 314 315 316 319 321 323 324 325 326 326 326 326 326 326 326 326 326 327 327 327 327 327 326 326 325 325 325 325 325 325 325 324 324 323 323 323 322 322
311 310 310 311 312 314 315 316 319 321 323 324 325 326 326 326 325 325 325 326 326 326 326 326 327 326 326 326 325 325 325 325 325 325 324 324 324 323 323 323 322 322
310 310 309 309 310 312 313 314 316 318 320 322 323 324 324 325 325 325 325 325 325 325 326 326 326 326 326 326 325 325 325 324 324 324 324 324 323 323 323 323 323 322
310 309 309 308 309 309 310 311 313 315 317 320 321 322 323 324 324 324 325 324 324 324 324 325 325 325 325 325 325 325 324 324 324 324 324 324 323 323 323 323 323 322
310 310 309 308 308 308 308 309 310 311 312 314 316 318 320 322 323 323 324 324 323 323 323 323 323 323 323 324 324 324 324 324 324 324 324 323 323 323 322 322 322 322
309 309 308 308 308 308 308 308 308 308 308 309 310 311 314 317 320 321 322 322 322 322 322 321 321 321 322 323 323 324 324 324 324 323 323 323 323 322 322 322 322 321
308 307 307 307 307 307 307 307 307 307 307 307 308 308 308 310 311 313 315 317 318 318 319 319 320 320 320 321 322 322 323 323 323 323 323 323 322 322 322 322 322 321
307 307 306 306 306 307 306 306 306 306 306 306 306 306 306 306 306 307 308 310 311 313 314 315 316 317 318 318 319 320 321 322 323 323 322 322 322 322 322 322 321 321
306 306 306 306 306 306 306 306 306 305 305 305 305 304 304 304 304 304 305 305 306 308 309 310 311 312 314 315 316 318 319 320 321 321 322 321 321 321 321 321 321 321
305 305 305 305 305 305 305 305 305 305 305 304 304 304 303 303 303 303 303 303 303 304 305 306 307 308 309 311 313 314 316 317 319 320 320 320 320 320 320 320 320 320
303 303 303 304 304 304 304 304 304 304 304 304 303 303 303 303 303 302 302 301 301 302 303 304 304 305 306 307 309 311 313 315 316 317 318 317 318 318 319 319 319 319
300 301 301 302 303 303 303 303 303 303 303 303 302 302 302 302 302 302 302 301 300 300 301 302 303 303 304 305 306 308 310 312 314 315 315 315 315 316 317 317 317 318
299 299 299 299 300 300 301 301 302 302 302 302 302 302 301 301 301 301 300 300 300 299 300 300 301 301 302 303 304 306 307 309 311 312 312 312 313 313 314 314 315 315
299 298 298 298 298 298 298 298 299 300 301 301 301 301 301 300 300 300 300 299 299 299 299 300 300 301 301 302 303 304 305 308 309 310 310 310 310 311 311 311 312 313
Wind_Speed
33 33 33 33 33 34 33 32 32 32 32 33 34 36 37 37 36 36 38 40 41 41 42 42 42 42 40 39 39 39 38 39 39 40 39 38 39 39 39 39 39 38
33 33 33 33 34 35 34 34 34 34 34 35 35 35 35 35 35 36 37 39 40 42 42 42 42 42 41 39 39 39 39 38 39 39 38 39 39 39 39 40 40 38
31 32 33 33 34 35 34 34 34 34 35 35 34 34 34 33 34 35 37 38 40 41 42 42 42 41 41 40 40 39 39 38 39 39 38 38 38 38 39 38 39 38
31 31 32 33 34 34 33 33 33 34 35 34 34 34 32 32 32 33 35 38 39 40 41 42 41 41 41 41 41 40 39 39 39 39 38 37 37 38 37 36 36 37
30 31 32 32 32 32 32 32 32 33 33 33 34 33 32 32 32 32 33 36 38 39 39 40 40 40 41 41 41 40 39 39 39 39 38 37 36 37 36 35 34 34
29 29 29 30 31 31 31 32 33 33 33 34 34 33 33 34 33 33 34 35 36 37 37 38 38 39 40 40 40 40 39 39 39 39 38 37 36 36 36 35 35 35
27 28 28 28 29 30 31 33 34 34 35 34 33 33 34 34 34 34 35 35 35 36 36 36 37 38 39 39 39 39 39 39 38 38 38 37 36 36 36 36 36 36
24 26 27 28 28 30 32 33 34 34 34 33 33 34 33 33 34 34 35 35 35 35 36 36 37 37 37 38 38 38 37 37 37 38 38 38 37 37 38 38 37 36
21 24 25 26 28 29 31 32 33 32 32 31 32 33 33 33 33 33 34 34 35 35 36 36 37 37 37 37 37 37 37 37 37 38 38 38 37 37 38 37 36 36
20 22 23 25 27 29 30 31 31 31 31 31 32 32 32 32 32 32 33 33 34 34 35 35 36 37 37 36 36 36 37 37 37 37 38 38 38 37 36 36 36 36
19 20 22 25 26 28 30 30 30 30 30 30 31 31 31 31 31 32 32 33 34 34 34 34 35 36 37 36 36 36 36 37 38 38 38 38 38 38 37 37 37 38
19 19 21 23 24 26 28 29 29 29 29 29 30 30 31 31 31 31 32 33 34 33 33 34 35 35 35 35 35 35 36 37 38 38 38 39 39 39 39 40 40 41
20 19 20 22 23 23 24 26 27 28 28 28 29 29 30 31 31 31 30 31 32 33 33 34 34 34 35 35 35 35 36 37 37 38 38 39 40 40 40 41 41 41
21 21 20 21 22 23 23 24 25 26 27 27 27 29 30 31 31 31 31 30 30 31 32 33 32 33 34 35 36 36 37 37 38 38 38 38 39 40 40 40 40 41
21 22 21 21 21 23 24 24 24 25 26 26 27 29 30 31 31 30 30 31 31 31 32 32 33 34 35 36 37 37 37 37 37 37 37 38 38 38 38 39 40 41
21 22 23 22 21 23 24 24 24 24 24 26 28 29 30 30 30 30 31 33 33 33 33 34 35 37 38 38 39 38 38 37 36 37 37 37 37 37 37 38 40 41
22 22 23 23 24 24 24 24 23 23 24 27 29 30 30 28 28 30 32 33 33 34 34 36 38 40 40 41 41 41 41 39 38 37 37 37 37 37 37 38 39 40
23 23 23 24 25 25 25 24 23 23 23 25 28 30 30 29 29 31 31 31 30 32 33 35 37 38 38 39 41 42 42 41 40 38 37 37 37 37 38 38 37 38
25 25 25 26 26 26 25 23 23 25 25 25 26 26 27 29 31 32 33 32 31 32 34 35 36 37 37 38 39 40 40 41 42 41 39 38 37 37 38 38 37 37
27 26 27 27 27 26 25 24 24 26 27 27 26 25 26 27 29 30 32 33 33 34 35 36 37 38 38 37 38 38 38 39 42 42 41 39 38 37 37 38 38 37
25 26 27 28 27 26 25 25 25 26 27 27 26 26 26 27 27 27 29 31 32 33 34 36 39 39 36 36 37 36 36 36 39 41 41 40 39 38 38 37 38 38
25 26 27 28 28 27 26 26 26 27 28 26 26 27 26 27 27 27 28 29 29 30 31 36 39 37 35 36 36 35 35 35 37 39 40 40 40 39 39 38 38 37
25 26 27 28 28 28 28 28 27 28 27 26 26 27 26 27 28 28 28 27 28 28 30 34 38 35 33 34 34 34 34 35 36 38 38 39 39 39 40 40 39 38
25 25 26 27 27 28 28 29 29 29 28 26 25 26 27 27 26 27 28 27 27 29 29 32 36 34 30 30 31 31 32 34 36 36 36 37 38 39 40 40 39 38
27 26 25 25 26 27 28 29 30 29 28 26 25 26 27 27 26 26 28 28 27 28 28 29 33 33 29 29 29 28 29 32 34 34 34 35 36 37 37 37 37 37
29 28 27 26 26 28 29 29 28 28 28 27 27 26 26 26 25 25 28 29 27 27 28 28 30 31 29 28 28 28 27 30 33 34 34 34 33 33 33 33 35 35
Wind_Direction
235 235 234 234 235 235 234 233 232 232 232 231 230 230 230 229 229 227 225 225 225 224 225 226 226 225 225 224 224 223 223 224 225 226 226 226 227 228 229 230 231 231
236 236 236 235 235 235 235 234 234 234 234 235 234 234 234 232 230 228 227 227 226 226 226 226 227 226 225 225 224 224 223 224 225 227 227 227 227 229 230 231 232 232
240 238 237 237 236 236 236 236 235 236 237 237 237 237 236 235 233 231 230 229 228 227 226 226 227 226 226 225 225 224 224 224 226 227 228 228 228 230 232 233 233 233
244 242 240 240 239 239 239 238 237 237 238 238 239 238 238 237 235 234 232 231 230 229 228 227 226 226 226 226 225 225 224 225 227 228 228 229 229 231 233 233 233 232
250 247 244 242 242 241 241 240 240 241 240 240 240 240 240 239 237 236 234 233 231 230 229 228 227 227 227 227 226 225 225 225 227 228 228 229 230 231 233 233 232 232
256 254 249 246 244 242 242 242 243 243 242 242 241 240 239 238 238 236 235 233 232 230 229 228 228 228 227 227 226 226 226 226 226 226 227 229 230 232 233 234 235 234
262 259 255 251 248 245 244 244 244 244 243 242 241 240 239 237 236 236 234 234 233 230 229 228 228 228 227 226 226 226 226 226 226 226 227 229 231 232 233 234 235 235
269 264 260 256 252 249 247 246 245 245 244 243 242 241 240 237 236 236 235 235 233 231 230 229 229 229 228 227 226 226 226 225 225 226 228 230 231 232 233 234 234 234
276 269 263 259 255 252 251 249 248 248 247 245 244 243 241 239 238 236 236 236 234 233 232 232 232 232 230 228 228 227 227 227 227 228 230 231 231 232 232 232 232 232
282 274 266 261 259 257 256 255 253 252 249 248 247 246 243 241 240 238 237 237 236 234 234 233 234 233 232 230 230 230 230 230 231 231 232 232 232 232 231 230 230 230
290 281 269 262 261 260 260 259 258 255 253 251 249 247 245 243 242 240 239 239 238 236 235 234 235 234 232 231 231 231 232 233 234 233 233 234 233 233 232 230 230 230
299 290 278 268 263 261 261 261 260 258 256 254 252 250 248 246 245 244 242 241 241 239 239 238 237 235 233 232 232 232 233 234 234 234 233 233 233 233 232 231 231 231
306 300 290 279 270 266 264 262 260 259 257 256 255 252 250 248 246 245 245 245 244 243 243 243 241 237 235 233 233 233 233 234 234 234 233 233 233 232 232 232 232 232
307 304 298 289 279 272 268 264 261 259 257 256 255 253 251 250 248 246 245 245 246 246 245 245 243 240 237 236 236 235 235 235 235 235 234 234 234 233 233 233 234 235
304 301 298 293 285 276 270 266 263 259 257 255 253 251 251 250 249 247 245 244 245 246 246 245 243 242 241 240 239 238 237 237 237 237 237 237 237 236 236 236 238 239
301 298 295 291 286 281 276 271 266 261 257 254 251 250 250 250 249 247 244 242 243 243 243 243 242 242 242 241 240 240 239 239 239 239 239 239 240 240 240 241 242 242
297 296 293 289 286 283 279 275 270 266 261 257 255 253 251 250 249 247 245 243 242 242 242 242 243 243 242 242 242 242 240 239 240 240 240 240 241 241 242 243 243 242
295 293 291 289 287 285 283 281 277 271 266 263 260 258 254 251 249 248 249 248 246 245 245 245 246 247 246 245 245 244 243 242 242 242 243 242 242 242 242 243 242 242
299 296 292 291 291 291 290 287 280 274 271 269 268 265 260 255 252 251 251 251 249 249 248 248 249 249 249 248 248 247 246 244 244 244 244 244 243 242 242 242 241 241
304 302 299 298 297 296 294 289 283 279 278 277 277 273 266 261 259 256 254 252 250 250 251 251 251 251 251 250 250 250 248 246 245 245 245 246 245 244 243 242 241 240
310 307 305 304 303 300 295 290 286 284 284 284 283 280 274 271 267 263 260 257 254 252 253 254 254 252 252 252 251 251 250 249 247 246 245 247 248 247 246 244 243 242
318 313 309 308 306 302 296 291 288 287 287 288 286 284 280 277 273 269 266 264 260 257 255 256 258 256 252 251 251 251 250 249 248 247 246 247 248 248 248 247 246 244
325 320 315 312 309 305 300 296 294 292 292 291 288 285 283 279 278 277 274 270 267 262 258 259 262 261 256 254 252 250 250 249 247 246 246 247 248 248 248 248 247 245
327 324 320 316 313 309 305 303 300 297 296 294 289 286 285 283 282 282 280 276 272 268 264 263 266 266 263 260 257 253 251 250 248 247 247 248 249 249 249 248 247 246
329 325 322 320 316 312 310 307 304 301 299 295 291 288 287 287 286 284 282 281 277 275 271 268 269 270 268 265 263 258 254 253 251 249 248 248 248 249 250 249 248 247
332 330 328 327 324 321 317 312 307 304 300 296 293 291 289 287 285 283 283 283 281 279 277 273 272 273 272 269 267 263 258 255 252 249 248 249 249 250 250 250 248 246